Regional Weather Roundup
Issued by NWS

Home | Current Version | Previous Version | Text Only | Print | Product List | Glossary On
Versions: 1 2 3 4 5 6 7 8 9 10 11 12 13 14 15 16 17 18 19 20 21 22 23 24 25 26 27 28 29 30 31 32 33 34 35 36 37 38 39 40 41 42 43 44 45 46 47 48 49 50
000
ASUS43 KMKX 041621
RWRWI

WISCONSIN REGIONAL WEATHER ROUNDUP
NATIONAL WEATHER SERVICE MILWAUKEE/SULLIVAN WI
1100 AM CDT WED MAY 04 2016

NOTE: "FAIR" INDICATES FEW OR NO CLOUDS BELOW 12,000 FEET WITH NO
SIGNIFICANT WEATHER AND/OR OBSTRUCTIONS TO VISIBILITY.

WIZ001-002-006>008-014>016-023>028-041700-
NORTHWEST WISCONSIN

CITY           SKY/WX    TMP DP  RH WIND       PRES   REMARKS
SUPERIOR ARPT  SUNNY     55  28  35 N12G21    29.97S
ASHLAND        SUNNY     51  35  54 NE14G22   29.97R
HAYWARD        SUNNY     53  24  32 N17G26    29.93S
SIREN          SUNNY     56  31  39 N14G21    29.95F
CUMBERLAND     MOSUNNY   52  32  46 N15G26    29.94S
RICE LAKE      MOSUNNY   54  30  39 N21G30    29.94F
CHETEK         MOSUNNY   54  36  49 N14G23    29.93S
LADYSMITH      SUNNY     53  28  38 N16G26    29.92R
EAU CLAIRE     MOSUNNY   55  32  41 N22G29    29.92S
MENOMONIE      MOSUNNY   56  33  40 N18G25    29.93F
NEW RICHMOND   SUNNY     57  31  37 N20G25    29.96F
OSCEOLA        MOSUNNY   56  32  40 NW18G25   29.99F
$$

WIZ003>005-009-010-017-018-041700-
NORTH CENTRAL WISCONSIN

CITY           SKY/WX    TMP DP  RH WIND       PRES   REMARKS
MANITOWISH WTR MOSUNNY   46  31  55 N13       29.89R
ARBOR VITAE    SUNNY     47  30  51 N15G25    29.88S
WOODRUFF       SUNNY     47  30  51 N15G25    29.88S
RHINELANDER    PTSUNNY   48  32  53 N12G17    29.88R
EAGLE RIVER    CLOUDY    41  31  67 N17       29.88R
LAND O LAKES   CLOUDY    41  32  71 N13G18    29.90R
PHILLIPS       SUNNY     49  26  41 N17G24    29.88S
TOMAHAWK       SUNNY     49  28  45 N13G21    29.87S
MEDFORD        SUNNY     50  30  46 N16G23    29.86S
MERRILL        SUNNY     51  32  47 N15G22    29.86S
$$

WIZ029-030-035-036-043>047-041700-
CENTRAL WISCONSIN

CITY           SKY/WX    TMP DP  RH WIND       PRES   REMARKS
WAUSAU         SUNNY     53  27  36 N16G28    29.83S
MOSINEE        MOSUNNY   50  32  50 NW18G25   29.85F
MARSHFIELD     SUNNY     54  32  43 N16G26    29.85S
STEVENS POINT  MOSUNNY   49  31  48 N14G20    29.84S
WAUPACA        MOSUNNY   53  33  47 NW14      29.83S
WAUTOMA        CLOUDY    51  35  54 N15G21    29.83S
WISC RAPIDS    SUNNY     54  31  41 N17G25    29.86S
CAMP DOUGLAS   MOSUNNY   55  39  54 NW17G30   29.85S
$$

WIZ011>013-019>022-031-037>040-048>050-041700-
NORTHEAST WISCONSIN

CITY           SKY/WX    TMP DP  RH WIND       PRES   REMARKS
ANTIGO         PTSUNNY   46  33  61 N20       29.84R
SHAWANO        CLOUDY    49  35  60 N18G24    29.84R
OCONTO         CLOUDY    45  34  66 N13G22    29.81S
STURGEON BAY   CLOUDY    43  34  70 N21       29.82R
GREEN BAY      CLOUDY    47  35  63 N24G32    29.81R
MANITOWOC      CLOUDY    46  34  62 N26G36    29.78R
APPLETON       CLOUDY    46  34  61 N18G28    29.80R
CLINTONVILLE   MOSUNNY   50  34  53 N15G22    29.83S
OSHKOSH        CLOUDY    47  35  63 N20G28    29.81R
$$

WIZ032>034-041-042-053>061-041700-
SOUTHWEST WISCONSIN

CITY           SKY/WX    TMP DP  RH WIND       PRES   REMARKS
LA CROSSE      MOSUNNY   58  35  42 N21       29.90S
SPARTA         MOSUNNY   54  34  45 N14G29    29.89S
VIROQUA        MOSUNNY   52  34  50 NW21G28   29.88S
BOSCOBEL       MOSUNNY   58  35  42 N14G23    29.87F
PRAIRIE DU CHI SUNNY     56  32  40 NW18G24   29.89S
PLATTEVILLE    MOSUNNY   54  40  57 NW21G35   29.85S
$$

WIZ056-057-062-063-064-067-068-041700-
SOUTH CENTRAL WISCONSIN

CITY           SKY/WX    TMP DP  RH WIND       PRES   REMARKS
REEDSBURG      MOSUNNY   53  36  51 N14G23    29.84S
BARABOO/DELLS  SUNNY     53  32  46 N14G23    29.84R
LONE ROCK      SUNNY     56  34  43 N22G30    29.85S
MINERAL POINT  MOSUNNY   55  36  47 NW17G24   29.84S
MADISON        PTSUNNY   51  38  60 N17G26    29.81S
MIDDLETON      PTSUNNY   53  38  58 N21       29.82S
WATERTOWN      CLOUDY    46  37  70 N14G22    29.80R
MONROE         PTSUNNY   52  37  58 NW14G23   29.82R
JANESVILLE     CLOUDY    52  37  58 N16G22    29.80R
$$

WIZ051-052-058>065-066-070>072-041700-
SOUTHEAST WISCONSIN

CITY           SKY/WX    TMP DP  RH WIND       PRES   REMARKS
MILWAUKEE      CLOUDY    48  35  60 NW16G26   29.77R
WAUKESHA       CLOUDY    45  36  70 NW17G31   29.79R
MILWAUKEE/TIMM CLOUDY    46  34  61 N18G24    29.78R
RACINE         CLOUDY    47  35  63 N17G26    29.79R
BURLINGTON     CLOUDY    46  36  68 N17       29.78R
KENOSHA        CLOUDY    48  36  63 N14G25    29.77R
FOND DU LAC    CLOUDY    47  36  65 N18G24    29.82R
SHEBOYGAN      CLOUDY    47  35  63 N18G29    29.77R
WEST BEND      CLOUDY    45  34  65 N15G22    29.79R
JUNEAU         CLOUDY    46  36  68 N21       29.81R
$$

LSZ147-162-041700-
LAKE SUPERIOR

STATION/POSITION TIME  TEMP    WIND        PRES    WAVE
                       AIR SEA DIR/SP/G            HT/PER
                 (UTC) (F)     (DEG/KT/KT) (MB)    (FT/S)
W MID LAKE BUOY  1550   39 37   90/  2/  2 1015.7R   2/ 4
DEVILS ISLAND    1600   40      60/ 12/ 13 1016.1R
SAXON HARBOR     1540   41      30/ 12/ 14 1014.9R
$$

LMZ867-665-643>646-041700-
LAKE MICHIGAN

STATION/POSITION TIME  TEMP    WIND        PRES    WAVE
                       AIR SEA DIR/SP/G            HT/PER
                 (UTC) (F)     (DEG/KT/KT) (MB)    (FT/S)
CHAMBERS ISLAND  1500   42     340/ 17/ 22 1009.5
N MID LAKE BUOY  1550   39 39  330/ 19/ 21 1007.6R   4/ 5
NORTHPORT PIER   1602   41     340/ 20     1009.1R
ALGOMA LAKESHORE 1515           20/ 23/ 30   N/A
KEWAUNEE LAKESHO 1600   45     360/ 11/ 22 1008.1R
SHEBOYGAN LAKESH 1600   45      10/ 24/ 26 1008.9R
PORT WASHINGTON  1540   47     360/ 10/ 16 1008.8R
S MID LAKE BUOY  1550   41 40  350/ 23/ 29 1006.3R   6/ 6
KENOSHA   LAKESH 1600   47     340/ 18/ 22 1008.1R
$$

TC  - TEMPERATURE IN CELSIUS
VSB - VISIBILITY IN STATUTE MILES
WCI - WIND CHILL INDEX
HX  - HEAT INDEX





USA.gov is the U.S. government's official web portal to all federal, state and local government web resources and services.